EN

Hourly Weather Ambrozow

Today, 24 January, Sunday

Time Temperature Precipitation Wind Pressure Humidity
00:00 0°C° 0 mm 3 mps 719 mmHg 90%
01:00 +1°C° 0 mm 2 mps 719 mmHg 89%
02:00 -1°C° 0 mm 2 mps 719 mmHg 88%
03:00 -1°C° 0 mm 2 mps 719 mmHg 87%
04:00 -1°C° 0 mm 2 mps 719 mmHg 86%
05:00 -1°C° 0.1 mm 2 mps 719 mmHg 88%
06:00 -1°C° 0.1 mm 2 mps 719 mmHg 90%
07:00 -2°C° 0.1 mm 2 mps 719 mmHg 92%
08:00 -2°C° 0.2 mm 2 mps 719 mmHg 93%
09:00 -2°C° 0.2 mm 2 mps 719 mmHg 94%
10:00 -2°C° 0.2 mm 2 mps 719 mmHg 96%
11:00 -2°C° 0.5 mm 2 mps 719 mmHg 96%
12:00 -1°C° 0.5 mm 2 mps 719 mmHg 96%
13:00 -1°C° 0.5 mm 2 mps 719 mmHg 96%
14:00 -1°C° 0.4 mm 2 mps 719 mmHg 97%
15:00 -1°C° 0.4 mm 2 mps 719 mmHg 97%
16:00 -1°C° 0.4 mm 2 mps 719 mmHg 97%
17:00 -2°C° 0 mm 2 mps 720 mmHg 96%
18:00 -2°C° 0 mm 2 mps 720 mmHg 96%
19:00 -2°C° 0 mm 2 mps 720 mmHg 95%
20:00 -2°C° 0 mm 2 mps 721 mmHg 95%
21:00 -2°C° 0 mm 2 mps 721 mmHg 94%
22:00 -3°C° 0 mm 2 mps 721 mmHg 94%
23:00 -3°C° 0 mm 2 mps 721 mmHg 94%

Tomorrow, 25 January, Monday

Time Temperature Precipitation Wind Pressure Humidity
00:00 -1°C° 0 mm 1 mps 721 mmHg 95%
01:00 -2°C° 0 mm 1 mps 721 mmHg 96%
02:00 -1°C° 0 mm 1 mps 721 mmHg 96%
03:00 -1°C° 0 mm 1 mps 722 mmHg 95%
04:00 -1°C° 0 mm 1 mps 722 mmHg 95%
05:00 -1°C° 0 mm 1 mps 722 mmHg 94%
06:00 -1°C° 0 mm 1 mps 723 mmHg 93%
07:00 -1°C° 0 mm 1 mps 723 mmHg 92%
08:00 -1°C° 0 mm 1 mps 723 mmHg 89%
09:00 -2°C° 0 mm 2 mps 723 mmHg 87%
10:00 -2°C° 0 mm 2 mps 724 mmHg 84%
11:00 -1°C° 0 mm 3 mps 724 mmHg 84%
12:00 -1°C° 0 mm 3 mps 724 mmHg 83%
13:00 -2°C° 0 mm 4 mps 724 mmHg 82%
14:00 -2°C° 0 mm 4 mps 724 mmHg 83%
15:00 -2°C° 0 mm 4 mps 724 mmHg 85%
16:00 -4°C° 0 mm 5 mps 724 mmHg 86%
17:00 -4°C° 0 mm 5 mps 724 mmHg 84%
18:00 -4°C° 0 mm 6 mps 725 mmHg 83%
19:00 -5°C° 0 mm 6 mps 725 mmHg 81%
20:00 -5°C° 0 mm 6 mps 725 mmHg 82%
21:00 -5°C° 0 mm 6 mps 725 mmHg 83%
22:00 -5°C° 0 mm 6 mps 725 mmHg 84%
23:00 -5°C° 0 mm 6 mps 725 mmHg 84%

Day after tomorrow, 26 January, Tuesday

Time Temperature Precipitation Wind Pressure Humidity
00:00 -6°C° 0 mm 7 mps 725 mmHg 83%
01:00 -6°C° 0 mm 7 mps 725 mmHg 83%
02:00 -6°C° 0 mm 7 mps 725 mmHg 83%
03:00 -6°C° 0 mm 7 mps 725 mmHg 82%
04:00 -6°C° 0 mm 7 mps 725 mmHg 82%
05:00 -6°C° 0 mm 7 mps 725 mmHg 83%
06:00 -6°C° 0 mm 7 mps 725 mmHg 83%
07:00 -6°C° 0 mm 8 mps 725 mmHg 84%
08:00 -6°C° 0.1 mm 8 mps 725 mmHg 84%
09:00 -6°C° 0.1 mm 8 mps 726 mmHg 84%
10:00 -6°C° 0.1 mm 8 mps 726 mmHg 84%
11:00 -5°C° 0 mm 8 mps 726 mmHg 82%
12:00 -5°C° 0 mm 8 mps 726 mmHg 80%
13:00 -5°C° 0 mm 8 mps 726 mmHg 79%
14:00 -4°C° 0 mm 7 mps 727 mmHg 79%
15:00 -4°C° 0 mm 7 mps 727 mmHg 80%
16:00 -4°C° 0 mm 7 mps 727 mmHg 80%
17:00 -6°C° 0.1 mm 7 mps 727 mmHg 83%
18:00 -6°C° 0.1 mm 7 mps 728 mmHg 86%
19:00 -6°C° 0.1 mm 7 mps 728 mmHg 88%
20:00 -6°C° 0.1 mm 7 mps 728 mmHg 86%
21:00 -6°C° 0.1 mm 7 mps 728 mmHg 84%
22:00 -6°C° 0.1 mm 7 mps 728 mmHg 81%
23:00 -6°C° 0 mm 7 mps 729 mmHg 81%

27 January, Wednesday

Time Temperature Precipitation Wind Pressure Humidity
00:00 -5°C° 0 mm 6 mps 729 mmHg 80%
01:00 -5°C° 0 mm 6 mps 729 mmHg 80%
02:00 -5°C° 0 mm 6 mps 729 mmHg 80%
03:00 -6°C° 0 mm 6 mps 729 mmHg 81%
04:00 -6°C° 0 mm 5 mps 729 mmHg 81%
05:00 -6°C° 0 mm 5 mps 729 mmHg 82%
06:00 -6°C° 0 mm 5 mps 729 mmHg 83%
07:00 -6°C° 0 mm 5 mps 729 mmHg 84%
08:00 -5°C° 0 mm 5 mps 729 mmHg 83%
09:00 -5°C° 0 mm 5 mps 729 mmHg 82%
10:00 -4°C° 0 mm 4 mps 729 mmHg 81%
11:00 -3°C° 0 mm 4 mps 729 mmHg 79%
12:00 -2°C° 0 mm 4 mps 728 mmHg 76%
13:00 -2°C° 0 mm 4 mps 728 mmHg 74%
14:00 -1°C° 0 mm 3 mps 728 mmHg 77%
15:00 -2°C° 0 mm 3 mps 729 mmHg 79%
16:00 -2°C° 0 mm 2 mps 729 mmHg 82%
17:00 -3°C° 0 mm 2 mps 729 mmHg 84%
18:00 -3°C° 0 mm 2 mps 729 mmHg 86%
19:00 -3°C° 0 mm 2 mps 729 mmHg 88%
20:00 -3°C° 0.1 mm 2 mps 729 mmHg 91%
21:00 -1°C° 0.1 mm 1 mps 729 mmHg 94%
22:00 -1°C° 0.1 mm 1 mps 730 mmHg 96%
23:00 -1°C° 0.1 mm 1 mps 730 mmHg 96%

28 January, Thursday

Time Temperature Precipitation Wind Pressure Humidity
00:00 -1°C° 0.1 mm 1 mps 730 mmHg 97%
01:00 -1°C° 0.1 mm 1 mps 730 mmHg 97%
02:00 -1°C° 0 mm 1 mps 730 mmHg 96%
03:00 -3°C° 0 mm 2 mps 730 mmHg 96%
04:00 -4°C° 0 mm 2 mps 730 mmHg 95%
05:00 -4°C° 0 mm 2 mps 731 mmHg 95%
06:00 -4°C° 0 mm 2 mps 731 mmHg 95%
07:00 -4°C° 0 mm 2 mps 731 mmHg 95%
08:00 -3°C° 0 mm 2 mps 731 mmHg 92%
09:00 -3°C° 0 mm 2 mps 731 mmHg 88%
10:00 -2°C° 0 mm 3 mps 731 mmHg 84%
11:00 -2°C° 0 mm 3 mps 730 mmHg 83%
12:00 -2°C° 0 mm 3 mps 730 mmHg 82%
13:00 -1°C° 0 mm 3 mps 730 mmHg 81%
14:00 -2°C° 0 mm 2 mps 729 mmHg 83%
15:00 -2°C° 0 mm 2 mps 729 mmHg 85%
16:00 0°C° 0 mm 1 mps 728 mmHg 87%
17:00 -1°C° 0.1 mm 1 mps 728 mmHg 89%
18:00 -1°C° 0.1 mm 1 mps 728 mmHg 92%
19:00 -3°C° 0.1 mm 2 mps 728 mmHg 94%

29 January, Friday

Time Temperature Precipitation Wind Pressure Humidity
Show more